Retour au catalogue

SDS-4

ActifScienceSSO
NORAD 38339·PAYLOAD·🇯🇵 Japan

Lancé May 17, 2012 depuis Tanegashima Space Center

Loading…

Prochains Passages (prochaines 24 heures)

TLE

FraisSource: Space-Track

Époque: Sep 14, 2026, 14:32 UTC

1 38339U 12025C   26257.60589898  .00000515  00000-0  82476-4 0  9993
2 38339  98.1382 354.1175 0007330  21.8095 338.3425 14.75942257769177

Suivez SDS-4 en temps réel avec AllMySat

Download on the App Store